Lapse_Rate
4.8 4.7 4.8 4.6 6.4 6.5 6.5 6.6 6.5 6.5 6.5 6.4 7.1 6.7 6.5 6.8 6.5 6.5 4.0 4.8 4.6 5.0 6.0 6.6 6.6 7.5 7.4 6.8 6.5 6.6 6.2 6.4 6.3 6.3 6.1 6.0 5.9 6.1 5.8 5.9 6.2 6.3 6.7 6.4 6.3 6.4 6.4 6.5 6.4
4.3 5.6 3.8 4.6 6.5 6.5 6.5 6.5 6.5 6.5 6.8 6.7 6.7 6.5 6.5 6.5 5.9 4.4 4.6 5.1 5.1 5.2 5.9 6.6 6.8 7.2 7.0 7.0 6.4 6.3 6.3 6.4 6.3 6.4 6.2 5.8 6.1 6.2 6.1 5.9 6.2 6.4 6.3 6.2 6.4 6.5 6.7 6.6 6.9
5.2 5.9 4.2 6.5 6.5 6.5 6.5 6.5 6.5 6.5 6.4 6.6 6.8 7.3 7.1 6.8 5.5 4.6 4.5 5.5 5.5 5.3 5.9 7.2 7.2 7.2 7.4 7.0 6.7 6.9 6.9 6.3 6.3 6.5 5.8 6.0 6.2 6.1 6.2 6.5 6.4 6.4 6.3 6.4 6.5 6.5 6.8 6.8 6.9
4.9 4.0 4.5 6.5 6.5 6.5 6.5 6.5 6.4 6.5 6.9 6.2 6.4 6.5 6.8 7.0 5.8 4.7 5.3 5.5 4.6 4.7 5.8 6.8 7.3 7.6 7.1 6.4 6.5 6.7 6.7 6.4 6.1 6.3 6.1 6.1 6.4 7.0 6.6 6.5 6.5 6.5 6.4 6.5 6.3 6.6 6.6 6.6 6.8
2.9 4.0 6.5 6.5 6.5 6.5 6.5 6.5 6.6 6.5 6.6 6.7 6.6 6.5 6.5 6.7 5.3 5.2 5.2 4.6 3.7 4.5 5.8 6.7 7.5 7.0 7.0 6.5 6.4 6.2 6.2 6.2 6.0 5.7 6.3 6.9 6.6 6.6 7.2 6.6 6.5 7.0 6.2 6.1 6.2 6.4 6.3 6.4 6.5
4.7 5.2 6.5 6.5 6.5 6.5 6.5 6.9 6.8 6.5 6.7 7.0 6.7 6.4 6.4 6.1 5.2 5.1 5.3 4.2 4.0 3.4 4.5 5.8 6.5 6.5 6.3 6.2 6.0 6.6 6.5 6.0 5.7 6.0 6.4 6.5 6.6 6.6 7.1 6.4 6.5 6.0 5.9 6.0 6.0 6.2 6.2 6.6 6.5
6.2 6.4 6.5 6.5 6.5 6.5 6.5 6.4 6.7 6.5 6.6 6.7 7.3 6.5 6.6 5.7 4.8 3.9 3.6 3.9 4.2 4.5 4.3 4.6 5.8 6.3 6.0 6.4 6.1 6.1 6.0 6.3 6.1 6.3 6.5 6.8 6.8 6.7 6.4 6.1 6.1 5.9 5.8 5.7 5.8 5.9 6.1 6.3 6.5
4.7 6.5 6.5 6.5 6.5 6.5 6.7 6.8 7.3 6.9 6.6 7.6 6.5 6.5 6.2 4.5 4.1 4.5 4.2 3.7 3.9 4.4 4.2 4.2 4.4 5.6 5.7 6.0 6.5 6.6 6.5 6.4 6.1 6.4 6.5 6.6 6.7 6.5 6.5 5.8 5.9 5.8 5.8 5.7 5.6 5.8 5.9 6.0 6.3
6.3 6.5 6.5 6.5 6.5 6.5 6.3 6.5 7.4 7.5 7.1 7.4 7.3 5.5 5.1 4.4 5.0 4.6 4.5 4.2 4.1 4.2 3.8 3.8 3.5 4.4 4.4 5.2 6.2 6.5 6.3 6.3 6.4 6.2 6.4 6.4 5.3 5.5 5.3 5.2 5.7 5.6 5.4 5.3 5.3 5.3 5.6 6.0 6.2
6.3 6.5 6.5 6.5 6.4 6.5 6.3 6.6 6.4 6.8 6.7 6.9 6.2 6.1 4.3 5.2 4.6 4.2 3.9 3.7 3.6 3.7 3.4 2.9 3.2 3.5 4.2 5.8 5.2 5.4 5.5 5.5 5.4 5.1 5.3 5.1 4.7 4.9 5.0 5.0 5.8 6.1 5.9 5.5 5.2 5.3 5.6 5.8 5.1
6.7 6.5 6.5 6.7 6.7 6.8 6.5 6.7 6.8 6.7 6.5 6.4 5.8 5.2 4.5 5.3 4.3 3.6 3.6 3.8 3.0 3.7 4.1 2.8 2.9 3.6 4.0 4.7 3.9 4.1 4.0 4.2 4.4 4.6 4.5 4.7 4.4 4.2 3.9 4.1 4.3 4.5 5.0 4.9 4.7 5.1 4.9 4.9 4.9
6.5 6.7 6.7 6.7 6.6 5.9 6.5 6.1 6.7 6.2 6.2 6.6 4.6 3.9 4.5 5.1 4.8 4.3 3.9 3.7 3.4 3.3 3.6 3.2 3.3 2.8 3.4 3.7 3.3 3.5 3.7 4.1 4.3 4.7 4.6 3.8 3.4 3.2 3.1 3.3 3.9 3.8 4.2 3.7 3.6 3.5 4.0 3.9 4.1
6.5 6.5 6.5 6.6 6.4 6.0 6.3 6.7 6.5 6.2 6.6 6.1 6.1 5.1 4.8 5.1 5.1 4.9 4.1 3.7 3.3 3.3 3.5 3.1 2.9 2.4 2.9 3.0 3.0 3.2 3.5 3.9 4.3 4.4 4.6 4.2 3.2 2.7 3.3 3.4 3.7 3.6 3.6 3.2 2.8 2.7 2.7 2.6 2.7
6.2 6.5 6.6 6.4 6.3 6.5 6.6 6.5 6.6 6.2 5.9 7.4 6.8 5.9 5.1 5.4 4.9 4.9 4.5 3.7 2.7 3.7 3.3 2.9 2.5 2.5 3.3 2.8 2.9 3.3 3.8 4.2 4.2 4.3 4.2 4.4 4.0 3.2 3.1 3.3 3.2 3.4 3.6 3.5 2.9 2.6 2.8 3.4 3.9
6.6 6.5 6.5 6.4 6.3 6.5 6.0 6.5 6.5 6.2 6.2 7.1 7.3 7.3 6.6 6.1 6.2 4.7 4.2 3.7 2.7 3.5 3.3 2.8 2.3 2.3 2.5 2.6 3.1 3.4 3.6 4.2 3.6 4.4 4.6 5.0 4.7 4.1 4.3 3.2 3.0 3.4 3.8 4.2 3.8 4.3 4.2 3.3 3.6
6.5 6.5 6.5 6.5 6.5 6.4 6.1 6.5 6.5 5.5 5.2 4.8 6.1 7.0 7.5 6.6 6.1 5.4 4.1 3.7 3.3 3.9 3.0 3.1 4.7 3.2 1.9 1.6 2.7 3.1 3.2 3.4 3.9 4.5 4.7 5.1 5.1 4.7 4.1 3.6 3.2 3.5 3.9 3.6 2.9 2.7 3.1 3.2 3.1
6.5 6.5 6.5 6.5 6.6 6.5 6.5 6.5 6.2 4.9 5.5 5.8 5.4 5.0 6.8 5.8 5.7 5.0 4.7 4.2 3.8 4.0 3.0 2.2 3.1 2.7 1.6 1.6 2.5 2.7 3.2 3.2 4.0 4.6 4.6 5.0 5.5 5.4 4.0 3.6 3.0 3.4 2.6 2.4 3.3 2.0 2.2 2.3 3.3
6.5 6.5 6.5 6.5 6.5 6.5 6.5 6.5 6.5 5.4 5.4 4.9 5.0 3.9 5.8 5.8 5.1 4.7 5.0 4.6 4.3 4.1 3.3 3.0 2.6 2.4 2.0 2.2 2.2 2.4 2.3 3.0 3.6 3.9 4.6 5.2 5.3 5.0 3.9 3.0 2.6 2.8 1.5 2.0 2.2 2.4 1.8 1.1 1.3
6.5 6.5 6.5 6.5 6.5 6.5 6.5 6.5 6.5 6.1 5.7 5.4 4.8 4.5 6.2 6.0 5.4 3.9 4.9 4.9 4.9 4.2 3.6 3.0 3.3 2.5 2.4 2.4 2.3 2.4 2.3 2.3 2.6 3.2 4.9 5.6 5.6 4.8 3.8 2.5 1.9 1.9 1.7 1.8 1.9 1.7 2.0 1.6 0.7
6.5 6.5 6.5 6.5 6.5 6.5 6.5 6.5 6.5 6.3 6.2 5.7 4.7 4.5 5.3 4.8 5.3 5.0 4.6 4.5 4.5 4.1 4.3 3.8 3.6 2.5 2.9 2.7 2.3 2.6 2.5 2.5 2.8 3.2 4.1 5.0 5.4 4.9 3.8 2.7 1.6 1.2 1.2 1.3 1.2 1.3 1.0 0.6 0.2
6.5 6.5 6.5 6.5 6.4 6.5 6.5 6.5 6.5 6.4 5.8 5.4 5.2 4.4 4.9 4.7 4.5 5.1 4.7 4.5 4.4 4.3 4.0 4.1 3.0 2.4 2.9 2.4 2.3 2.0 2.1 2.0 2.9 3.0 3.2 4.0 5.3 4.9 4.4 3.4 1.5 1.0 1.0 1.6 1.1 1.2 1.5 1.0 0.4
6.6 6.5 6.4 6.5 6.5 6.5 6.5 6.5 6.5 6.5 6.5 6.5 5.9 4.9 4.1 4.9 5.7 4.7 4.5 4.3 4.8 4.5 4.3 4.6 3.3 2.9 2.6 2.1 2.8 3.1 2.8 3.1 2.8 3.2 3.2 4.0 5.0 5.0 4.4 3.7 2.9 1.8 0.5 2.0 1.8 0.9 1.3 0.8 1.4
6.4 6.5 6.5 6.5 6.5 6.5 6.5 6.5 6.5 6.5 6.5 6.5 6.3 6.0 3.8 5.0 6.2 5.0 4.4 4.3 4.9 4.6 3.9 4.2 3.3 2.6 2.5 2.1 2.5 2.7 3.1 2.5 2.9 2.5 3.4 3.4 4.0 4.9 4.6 3.5 2.6 1.9 1.4 1.9 2.4 1.8 1.5 0.9 0.9
6.5 6.5 6.5 6.5 6.5 6.5 6.5 6.5 6.5 6.5 6.5 6.5 6.2 6.3 5.1 4.9 4.8 5.3 4.3 4.7 4.8 4.5 4.6 4.0 3.2 2.5 2.0 2.3 2.1 3.3 2.8 2.6 3.0 2.9 2.8 3.1 3.4 3.9 4.3 3.7 2.9 2.9 2.2 2.6 2.6 2.2 1.7 2.0 1.4
6.5 6.5 6.5 6.5 6.5 6.5 6.5 6.5 6.5 6.5 6.5 6.6 6.3 6.2 6.1 4.8 4.8 4.4 4.8 4.7 4.3 4.0 4.4 3.8 2.9 2.8 2.3 2.7 2.7 2.4 2.4 2.5 3.0 3.0 2.8 3.0 3.1 3.4 3.5 3.5 3.0 2.3 3.2 3.1 2.8 2.7 2.9 2.6 2.4
6.5 6.5 6.5 6.5 6.5 6.5 6.5 6.5 6.5 6.5 5.6 5.5 5.7 5.3 6.0 4.0 4.6 4.0 4.9 3.7 3.2 3.7 4.0 3.7 2.9 3.4 2.7 2.9 2.8 2.6 2.2 2.3 2.4 2.9 2.5 2.9 3.1 3.1 3.4 3.0 3.6 3.4 3.9 3.7 3.2 3.1 3.3 3.5 3.2
6.5 6.5 6.5 6.5 6.5 6.5 6.5 6.5 6.5 6.5 6.5 5.9 5.6 5.1 5.1 4.4 4.2 4.6 4.6 4.3 2.8 3.5 4.2 3.6 3.1 3.8 2.6 3.4 3.3 2.4 2.5 2.3 2.9 2.0 2.5 2.7 2.7 3.4 3.6 3.8 3.5 3.4 3.3 3.8 3.6 3.6 3.8 3.6 3.4
6.5 6.5 6.5 6.5 6.5 6.5 6.5 6.5 6.6 6.5 6.5 6.5 6.2 5.7 4.6 4.0 3.4 3.4 3.3 3.6 3.9 3.4 4.1 5.0 4.3 3.9 2.8 3.0 3.6 3.7 3.0 3.0 2.7 2.2 2.3 2.7 3.1 3.2 3.5 3.2 3.0 3.2 3.4 3.6 3.8 3.7 3.6 3.7 3.5
6.5 6.5 6.5 6.5 6.5 6.5 6.5 6.5 6.5 6.5 6.5 6.5 5.9 4.5 4.5 4.0 3.7 2.4 2.0 2.5 3.3 3.6 3.8 3.5 4.9 4.2 4.2 3.4 3.4 3.9 3.5 3.3 3.3 2.6 2.7 2.5 2.7 3.1 2.8 2.8 3.1 3.2 3.0 3.3 3.6 3.5 3.8 3.9 3.9
6.5 6.5 6.5 6.5 6.5 6.5 6.5 6.5 6.5 6.5 6.3 5.4 5.3 4.0 3.9 2.8 2.0 2.0 2.0 1.6 2.9 3.3 2.8 3.2 5.4 3.9 4.3 2.9 4.2 3.3 3.3 3.5 3.7 3.6 3.0 2.4 2.4 2.8 2.9 2.9 3.2 3.1 3.1 2.9 3.1 3.7 4.3 3.9 4.0
Wind_Speed
4 5 1 2 2 3 2 3 2 1 3 4 6 3 8 3 1 3 1 6 6 5 8 14 13 12 9 7 9 9 9 10 13 14 14 15 13 12 11 10 10 10 11 10 11 12 14 15 15
3 4 3 1 4 4 2 3 4 4 6 11 9 5 5 3 3 8 4 3 7 7 6 9 10 10 10 12 10 9 10 9 12 13 14 14 12 11 11 10 11 11 11 11 11 13 14 14 14
4 2 3 3 2 2 2 2 9 10 5 3 5 6 3 3 7 7 5 9 8 5 8 13 14 13 14 12 11 10 7 9 11 11 13 11 10 10 11 11 10 11 11 11 13 13 13 12 12
1 3 3 3 0 2 4 8 9 10 9 7 8 7 4 6 4 6 10 10 8 4 8 11 12 12 11 11 13 10 8 8 10 12 10 9 10 9 10 9 12 11 10 12 12 11 11 10 10
3 2 4 4 6 2 7 8 13 8 4 10 4 5 5 3 9 12 8 8 8 5 7 10 9 9 10 7 11 11 8 7 8 12 8 8 10 10 8 10 10 10 11 11 10 9 9 7 8
4 2 4 4 8 9 5 6 5 10 7 12 10 8 4 7 11 8 6 6 6 6 4 7 9 6 5 7 7 8 8 7 8 9 8 7 8 9 11 9 8 8 9 9 9 7 6 5 5
4 3 3 1 6 3 1 5 6 11 10 6 12 5 3 9 8 5 7 6 5 6 6 6 7 11 7 8 9 8 8 8 7 7 7 8 8 8 9 9 7 7 8 7 6 4 3 4 4
4 3 3 2 8 2 2 6 10 15 5 9 9 6 6 6 11 9 6 5 6 4 5 7 6 9 9 9 10 8 8 9 8 7 5 6 7 7 7 6 5 6 7 6 5 3 3 2 2
5 4 6 7 10 2 12 10 11 4 11 5 4 7 13 15 14 8 5 3 3 4 5 6 5 7 8 9 10 9 8 7 7 7 6 4 3 6 5 3 4 4 3 3 2 2 3 4 3
3 3 8 6 6 3 1 5 2 6 12 5 11 13 16 14 14 10 7 7 4 5 4 6 7 7 7 5 4 7 6 6 5 5 4 4 2 3 2 1 1 1 1 2 3 4 5 6 5
4 4 4 5 4 1 2 5 6 16 6 14 20 18 17 16 14 10 9 7 6 5 4 5 5 8 7 4 6 6 4 4 5 5 5 4 1 2 1 1 2 2 3 6 5 7 6 7 7
1 9 4 3 9 3 3 1 3 7 6 15 20 21 18 18 15 11 11 9 7 6 6 5 6 6 7 6 6 5 3 4 4 5 6 5 2 4 4 3 5 5 5 7 8 8 10 11 12
3 3 5 5 11 7 9 3 2 2 11 16 20 19 19 18 17 10 11 7 5 6 4 6 6 5 5 4 3 3 3 2 5 5 9 9 5 4 5 6 7 7 6 8 9 7 8 7 8
4 6 4 3 6 6 7 2 1 2 2 19 21 20 18 18 16 10 10 10 9 9 7 6 7 6 7 4 5 4 5 4 6 9 13 14 9 7 5 5 6 7 6 9 9 6 5 4 4
10 5 4 3 2 5 7 2 4 4 7 16 20 18 18 17 17 18 17 14 14 11 11 11 8 8 6 5 7 7 6 6 7 9 12 14 12 9 7 3 3 4 3 2 2 1 2 1 2
3 4 2 4 2 4 6 5 5 6 6 7 9 12 16 17 21 19 18 16 13 12 11 10 9 9 7 5 6 4 5 6 7 9 9 11 13 11 5 2 0 2 3 2 2 1 0 2 3
2 3 4 3 9 3 6 5 7 7 7 6 7 5 12 13 16 16 18 16 14 14 12 10 8 9 7 6 6 5 5 4 7 10 6 9 12 9 6 3 3 4 4 1 1 3 3 1 2
6 4 3 5 6 4 6 9 5 8 7 9 7 7 10 14 15 16 18 15 13 12 11 11 8 7 7 4 3 2 2 2 6 8 7 8 8 9 6 5 4 3 3 1 2 3 4 2 3
2 3 6 7 8 6 11 6 8 10 6 8 7 6 11 14 9 12 14 13 12 9 9 9 11 8 6 3 3 1 3 2 3 6 7 9 8 7 6 4 4 3 2 2 1 1 4 4 3
5 6 4 2 8 5 4 12 3 8 9 8 8 7 7 10 14 14 15 15 15 14 12 11 11 9 8 4 3 3 3 2 2 2 6 11 6 8 7 5 3 3 3 3 2 0 1 1 4
4 5 6 7 4 2 4 7 6 5 5 6 6 4 5 11 17 15 17 17 16 14 14 13 11 10 9 8 4 3 3 2 2 1 2 5 7 9 9 7 5 3 1 3 3 2 3 2 2
8 8 11 7 6 4 6 4 6 6 8 8 11 11 9 8 15 16 17 17 18 17 13 13 11 12 8 8 6 5 5 4 3 3 3 4 7 9 8 8 6 5 2 3 3 3 2 3 3
9 6 11 8 7 3 0 3 6 2 6 12 15 13 12 12 13 18 18 19 19 15 15 13 9 8 7 8 8 6 5 4 3 2 4 3 4 8 7 10 7 4 3 3 3 3 2 0 3
6 7 9 6 4 2 6 6 5 4 6 5 12 14 12 11 9 15 16 16 16 15 13 12 11 9 8 9 9 10 9 6 4 3 3 4 4 3 7 10 8 6 5 5 4 4 4 3 2
7 7 3 2 2 6 2 4 8 6 6 8 11 16 15 13 11 12 16 15 14 15 14 12 12 11 10 9 9 8 9 8 8 6 5 5 3 2 5 5 5 4 7 7 5 4 4 4 2
2 7 6 5 4 4 1 3 5 6 7 5 3 8 8 9 12 12 17 16 14 15 16 15 14 13 12 12 10 8 8 6 6 6 5 4 4 5 4 5 6 7 7 6 4 2 3 4 3
3 2 3 7 1 2 2 3 6 7 8 8 6 5 7 7 11 14 14 17 16 15 14 15 15 16 14 13 10 9 8 8 7 8 5 5 5 4 6 6 6 6 6 7 5 4 5 4 3
7 8 4 3 2 3 3 2 4 3 5 7 8 3 6 8 9 8 9 14 15 13 15 17 16 17 13 13 12 10 9 8 8 6 7 7 6 6 6 6 6 6 6 5 5 4 4 4 4
2 2 6 5 4 5 1 5 5 6 4 1 6 6 4 6 6 8 7 6 10 14 15 16 15 14 14 13 12 12 10 9 8 8 8 7 6 7 6 6 7 7 6 6 5 6 6 6 5
2 3 4 5 5 1 3 5 4 6 6 5 1 4 4 8 6 5 4 4 4 7 7 9 14 15 16 12 13 13 11 10 10 10 9 7 7 6 7 6 6 6 6 6 7 6 6 6 6
Wind_Direction
170 211 159 50 55 75 131 304 91 49 58 343 135 186 129 46 129 183 135 141 126 125 160 187 190 181 167 145 137 141 121 119 120 115 113 110 108 109 113 120 128 133 119 112 109 101 102 101 102
221 199 53 89 74 66 349 20 85 81 122 107 81 73 57 73 59 109 95 149 122 126 157 167 179 152 155 140 134 124 114 117 109 114 109 104 110 112 111 116 138 128 118 111 105 102 100 102 105
221 67 74 67 17 85 137 67 129 131 157 111 113 60 67 49 96 128 125 133 110 134 160 154 158 158 143 132 115 103 106 110 113 115 105 110 115 116 118 116 115 113 113 112 103 104 109 106 106
116 19 58 66 42 213 109 146 147 124 69 47 113 71 65 102 133 147 129 130 114 137 163 163 169 160 145 133 116 115 108 113 115 106 103 120 127 130 120 115 113 112 108 106 106 114 109 106 100
28 74 43 5 335 303 116 137 132 128 73 90 92 89 65 149 93 123 121 134 137 141 161 159 166 156 131 116 115 118 123 115 107 94 107 110 121 127 122 110 110 110 108 106 111 113 105 108 86
41 35 56 12 338 343 64 158 115 103 118 103 88 95 117 107 125 136 117 122 126 140 160 157 157 148 130 126 117 125 131 114 111 117 123 123 124 123 119 107 106 107 106 109 108 110 112 95 58
94 58 101 327 295 278 126 51 148 129 134 117 125 91 97 105 91 86 101 105 109 133 140 148 166 161 169 148 144 147 130 128 125 131 124 119 121 123 113 109 106 104 100 96 100 99 81 42 23
97 91 90 302 272 296 123 217 158 145 119 119 138 149 164 169 141 103 86 94 114 153 158 163 178 152 155 168 156 153 146 141 137 144 136 118 127 132 119 100 95 93 91 93 87 62 31 358 352
157 87 185 198 220 68 343 128 166 110 131 153 201 133 146 161 148 113 110 110 119 176 172 165 157 159 166 162 163 156 157 148 149 153 162 140 97 97 96 103 105 96 88 79 61 350 319 307 307
94 144 202 203 162 129 211 0 323 124 150 94 93 104 136 156 161 161 171 177 176 191 195 170 156 166 169 161 145 152 160 151 154 151 168 179 136 121 131 152 173 82 349 320 307 302 306 310 334
143 195 190 224 164 22 331 24 317 151 179 163 152 155 155 166 174 177 178 190 190 173 191 185 153 159 176 163 162 159 156 157 178 182 184 202 143 271 253 275 313 334 310 288 294 304 302 300 293
216 238 234 219 167 154 149 332 327 167 171 163 158 158 160 174 185 186 177 190 182 181 191 172 162 162 189 183 171 169 179 182 195 206 201 200 230 238 243 235 247 247 246 268 275 268 275 280 275
221 162 167 282 151 162 158 230 194 11 126 146 149 160 173 180 189 195 188 182 173 188 192 170 167 174 182 154 147 165 174 200 225 231 225 225 225 234 246 238 250 257 266 266 272 274 273 272 262
180 132 180 131 150 156 153 173 206 263 263 152 160 171 180 180 187 188 186 191 186 189 189 171 179 172 180 168 166 197 207 238 249 260 237 223 215 218 250 267 267 280 288 291 273 248 260 269 284
134 107 71 46 337 165 135 171 203 138 145 169 172 185 181 186 183 191 190 197 186 195 180 179 178 175 186 188 180 183 211 252 244 250 234 214 214 219 231 264 284 315 358 311 266 353 297 296 278
108 81 169 200 119 243 131 251 213 165 142 157 169 188 180 180 191 187 190 195 189 180 185 176 187 185 191 189 184 194 229 243 243 225 231 214 215 208 193 207 58 147 81 97 76 334 248 90 133
330 195 230 279 200 134 171 230 207 161 169 186 184 207 183 178 184 184 184 189 191 186 174 175 184 185 181 180 189 210 214 219 223 213 211 198 194 199 166 158 136 141 100 213 108 49 50 315 211
193 208 223 234 181 191 223 235 161 174 172 209 186 208 180 181 184 172 180 181 188 184 180 175 173 188 160 174 141 204 209 188 216 215 215 203 195 182 172 126 139 174 136 321 349 80 40 11 323
147 246 247 231 169 151 221 240 219 166 199 222 207 205 174 177 176 170 171 174 180 181 177 177 177 178 157 164 151 133 203 164 215 219 224 226 210 178 185 148 156 193 137 99 313 96 60 20 11
230 252 254 319 161 152 199 251 233 171 206 201 214 202 182 153 166 174 171 171 181 183 189 182 191 173 178 163 165 164 154 190 177 168 244 237 209 194 194 168 177 178 138 95 68 142 111 31 9
232 217 203 207 137 206 91 312 257 211 177 172 221 205 212 179 172 177 172 180 181 184 189 194 188 182 183 165 130 98 70 54 59 291 237 241 211 217 210 193 163 175 152 178 158 186 159 164 31
266 237 213 149 122 205 144 263 282 207 223 203 208 206 204 199 177 176 180 182 187 194 192 192 187 180 185 159 154 151 167 167 209 205 209 209 212 218 203 214 175 187 183 163 151 179 196 162 150
241 241 179 157 148 100 7 32 270 112 245 223 219 209 207 200 179 183 183 189 191 185 190 191 182 178 177 172 170 167 174 194 181 194 204 215 217 227 202 207 190 187 208 202 173 170 187 245 128
150 70 41 55 72 335 225 166 282 204 219 246 218 217 204 193 168 187 185 188 189 187 192 188 183 184 179 184 178 180 184 188 187 205 215 217 225 211 209 208 206 205 218 208 207 186 185 207 166
76 64 17 29 13 228 187 106 244 272 265 245 213 204 198 189 175 170 182 187 185 190 191 192 185 193 184 192 184 185 185 179 200 203 203 207 212 228 224 205 204 206 221 218 198 185 192 192 200
175 146 152 177 204 248 54 226 265 295 312 333 122 153 181 169 192 182 181 184 188 191 190 191 193 195 188 193 194 193 190 187 193 199 197 215 203 212 189 206 220 219 214 219 222 198 206 205 211
186 106 195 100 10 49 261 296 330 346 9 35 69 141 185 186 191 197 180 185 185 188 189 198 195 201 187 198 195 194 189 189 198 198 195 202 208 221 221 213 215 210 219 213 198 215 224 210 214
150 163 75 11 154 257 304 271 225 317 3 359 346 325 216 189 188 196 183 184 195 187 181 212 205 200 196 194 202 199 192 197 198 191 201 201 211 222 225 220 222 205 205 218 207 223 239 217 237
2 111 53 115 134 160 150 266 213 198 230 306 331 350 5 233 185 199 188 174 186 193 213 212 201 194 206 198 198 204 201 197 201 201 202 198 201 216 226 214 203 207 207 213 212 226 235 230 229
137 134 121 135 240 135 160 259 269 207 189 132 163 24 60 104 100 86 119 96 155 209 207 211 209 192 204 190 216 205 199 199 204 209 210 190 203 204 210 208 201 205 215 221 216 219 217 217 232